ARG1372 SPJC-MMUN

Flight info

Callsign ARG1372
Flight time N/A
Altitude 34000
Route ISREN UM542 ATENO UL203 LIXAS UZ512 RADIM/N0461F360 DCT SIGMA SIGMA2G
Aircraft B38M/M-MSDFGHILORVW/SB1

Departure

Time 2026-04-30 06:09
Airport Jorge Chávez International Airport (SPJC)

Arrival

Time N/A
Airport Cancún International Airport (MMUN)
Time Latitude Longitude Altitude Speed Heading
2026-04-30 05:04 -12.02635 -77.11906 82 ft 0 kts 64°
2026-04-30 05:57 -12.02636 -77.11909 82 ft 3 kts 63°
2026-04-30 05:57 -12.02651 -77.11932 83 ft 4 kts 46°
2026-04-30 05:57 -12.02672 -77.11947 82 ft 4 kts 14°
2026-04-30 05:58 -12.02693 -77.11946 82 ft 1 kts 334°
2026-04-30 06:01 -12.02687 -77.11949 82 ft 2 kts 334°
2026-04-30 06:01 -12.02658 -77.11963 82 ft 7 kts 334°
2026-04-30 06:01 -12.02599 -77.11992 82 ft 11 kts 334°
2026-04-30 06:02 -12.02547 -77.12047 81 ft 12 kts 264°
2026-04-30 06:02 -12.02595 -77.12153 71 ft 20 kts 244°
2026-04-30 06:02 -12.02596 -77.12250 63 ft 16 kts 328°
2026-04-30 06:02 -12.02496 -77.12299 60 ft 15 kts 334°
2026-04-30 06:03 -12.02395 -77.12348 57 ft 17 kts 334°
2026-04-30 06:03 -12.02291 -77.12399 53 ft 15 kts 334°
2026-04-30 06:03 -12.02188 -77.12450 50 ft 13 kts 334°
2026-04-30 06:03 -12.02110 -77.12489 49 ft 11 kts 334°
2026-04-30 06:04 -12.02030 -77.12528 47 ft 14 kts 334°
2026-04-30 06:04 -12.01968 -77.12559 46 ft 16 kts 334°
2026-04-30 06:04 -12.01869 -77.12608 47 ft 12 kts 335°
2026-04-30 06:05 -12.01718 -77.12682 48 ft 13 kts 334°
2026-04-30 06:05 -12.01600 -77.12741 45 ft 14 kts 334°
2026-04-30 06:05 -12.01506 -77.12788 43 ft 16 kts 334°
2026-04-30 06:05 -12.01400 -77.12840 42 ft 18 kts 334°
2026-04-30 06:06 -12.01321 -77.12878 41 ft 19 kts 334°
2026-04-30 06:06 -12.01171 -77.12940 41 ft 17 kts 338°
2026-04-30 06:06 -12.01095 -77.12977 40 ft 18 kts 334°
2026-04-30 06:06 -12.00979 -77.13035 39 ft 19 kts 334°
2026-04-30 06:07 -12.00865 -77.13091 39 ft 19 kts 334°
2026-04-30 06:07 -12.00761 -77.13142 39 ft 17 kts 334°
2026-04-30 06:07 -12.00666 -77.13188 38 ft 14 kts 334°
2026-04-30 06:07 -12.00629 -77.13244 37 ft 11 kts 255°
2026-04-30 06:08 -12.00665 -77.13326 35 ft 14 kts 245°
2026-04-30 06:08 -12.00727 -77.13346 36 ft 12 kts 154°
2026-04-30 06:08 -12.00935 -77.13243 40 ft 66 kts 154°
2026-04-30 06:08 -12.01549 -77.12941 40 ft 129 kts 154°
2026-04-30 06:09 -12.02514 -77.12470 97 ft 172 kts 154°
2026-04-30 06:09 -12.03617 -77.11898 655 ft 179 kts 153°
2026-04-30 06:09 -12.04752 -77.11350 1293 ft 183 kts 163°
2026-04-30 06:09 -12.06079 -77.11197 1603 ft 206 kts 187°
2026-04-30 06:10 -12.07478 -77.11677 2124 ft 220 kts 210°
2026-04-30 06:10 -12.08801 -77.12519 2837 ft 228 kts 210°
2026-04-30 06:10 -12.10235 -77.13347 3420 ft 243 kts 209°
2026-04-30 06:10 -12.11751 -77.14163 4182 ft 249 kts 208°
2026-04-30 06:11 -12.13225 -77.15144 4880 ft 258 kts 221°
2026-04-30 06:11 -12.14419 -77.16532 5624 ft 264 kts 237°
2026-04-30 06:11 -12.15212 -77.18265 5786 ft 273 kts 258°
2026-04-30 06:11 -12.15280 -77.20206 5941 ft 276 kts 271°
2026-04-30 06:12 -12.15252 -77.22171 6019 ft 277 kts 270°
2026-04-30 06:12 -12.15214 -77.24145 6053 ft 278 kts 271°
2026-04-30 06:12 -12.14788 -77.26055 6503 ft 276 kts 298°
2026-04-30 06:12 -12.13604 -77.27585 7245 ft 282 kts 319°
2026-04-30 06:13 -12.12013 -77.28796 7926 ft 287 kts 323°
2026-04-30 06:13 -12.10376 -77.29990 8632 ft 291 kts 324°
2026-04-30 06:13 -12.08707 -77.31187 9327 ft 295 kts 324°
2026-04-30 06:13 -12.07013 -77.32389 9995 ft 298 kts 324°
2026-04-30 06:14 -12.05279 -77.33611 10469 ft 310 kts 325°
2026-04-30 06:14 -12.03452 -77.34892 10757 ft 326 kts 325°
2026-04-30 06:14 -12.01552 -77.36223 11112 ft 337 kts 325°
2026-04-30 06:14 -11.99594 -77.37592 11551 ft 344 kts 325°
2026-04-30 06:15 -11.97613 -77.38978 12113 ft 347 kts 325°
2026-04-30 06:15 -11.95610 -77.40377 12675 ft 350 kts 325°
2026-04-30 06:15 -11.93595 -77.41785 13225 ft 352 kts 325°
2026-04-30 06:15 -11.91564 -77.43204 13761 ft 355 kts 325°
2026-04-30 06:16 -11.89515 -77.44635 14291 ft 358 kts 325°
2026-04-30 06:16 -11.87450 -77.46077 14808 ft 361 kts 325°
2026-04-30 06:16 -11.85373 -77.47527 15319 ft 363 kts 325°
2026-04-30 06:16 -11.83290 -77.48981 15805 ft 366 kts 325°
2026-04-30 06:17 -11.81181 -77.50453 16269 ft 368 kts 325°
2026-04-30 06:17 -11.79060 -77.51933 16715 ft 371 kts 325°
2026-04-30 06:17 -11.76868 -77.53336 17131 ft 373 kts 329°
2026-04-30 06:17 -11.74627 -77.54695 17543 ft 375 kts 328°
2026-04-30 06:18 -11.72378 -77.56070 17939 ft 377 kts 328°
2026-04-30 06:18 -11.70122 -77.57454 18313 ft 380 kts 328°
2026-04-30 06:18 -11.67855 -77.58847 18674 ft 381 kts 328°
2026-04-30 06:18 -11.65617 -77.60222 19044 ft 383 kts 328°
2026-04-30 06:19 -11.63325 -77.61631 19358 ft 386 kts 328°
2026-04-30 06:19 -11.61026 -77.63043 19700 ft 387 kts 328°
2026-04-30 06:19 -11.58712 -77.64465 19987 ft 389 kts 328°
2026-04-30 06:19 -11.56385 -77.65894 20291 ft 391 kts 328°
2026-04-30 06:20 -11.54076 -77.67311 20569 ft 392 kts 328°
2026-04-30 06:20 -11.51733 -77.68750 20847 ft 394 kts 328°
2026-04-30 06:20 -11.51459 -77.68918 20879 ft 394 kts 328°
2026-04-30 06:25 -11.49949 -77.69845 21046 ft 395 kts 328°
2026-04-30 06:25 -11.47590 -77.71293 21306 ft 397 kts 328°
2026-04-30 06:25 -11.45221 -77.72746 21553 ft 398 kts 328°
2026-04-30 06:26 -11.42840 -77.74207 21800 ft 400 kts 328°
2026-04-30 06:26 -11.40458 -77.75668 22038 ft 401 kts 328°
2026-04-30 06:26 -11.38063 -77.77137 22267 ft 402 kts 328°
2026-04-30 06:26 -11.37491 -77.77487 22321 ft 403 kts 328°
2026-04-30 06:29 -11.37023 -77.77774 22364 ft 403 kts 328°
2026-04-30 06:30 -11.34617 -77.79249 22584 ft 404 kts 328°
2026-04-30 06:30 -11.32204 -77.80728 22795 ft 406 kts 328°
2026-04-30 06:30 -11.29780 -77.82213 22999 ft 407 kts 328°
2026-04-30 06:30 -11.27349 -77.83703 23196 ft 408 kts 328°
2026-04-30 06:31 -11.24912 -77.85196 23400 ft 409 kts 328°
2026-04-30 06:31 -11.22467 -77.86693 23581 ft 411 kts 328°
2026-04-30 06:31 -11.20015 -77.88194 23763 ft 412 kts 328°
2026-04-30 06:31 -11.17556 -77.89700 23944 ft 413 kts 328°
2026-04-30 06:32 -11.15090 -77.91209 24114 ft 414 kts 328°
2026-04-30 06:32 -11.12622 -77.92720 24274 ft 415 kts 328°
2026-04-30 06:32 -11.10144 -77.94236 24441 ft 416 kts 328°
2026-04-30 06:32 -11.07659 -77.95755 24597 ft 417 kts 328°
2026-04-30 06:33 -11.05144 -77.97155 24739 ft 418 kts 333°
2026-04-30 06:33 -11.02547 -77.98494 24877 ft 419 kts 332°
2026-04-30 06:33 -10.99950 -77.99849 25023 ft 420 kts 332°
2026-04-30 06:33 -10.97388 -78.01193 25169 ft 420 kts 332°
2026-04-30 06:34 -10.94794 -78.02555 25551 ft 420 kts 332°
2026-04-30 06:34 -10.92178 -78.03929 25866 ft 424 kts 332°
2026-04-30 06:34 -10.89553 -78.05309 26264 ft 426 kts 332°
2026-04-30 06:34 -10.87455 -78.06411 26541 ft 428 kts 332°
2026-04-30 06:35 -10.84800 -78.07805 26895 ft 430 kts 332°
2026-04-30 06:35 -10.82128 -78.09209 27247 ft 433 kts 332°
2026-04-30 06:35 -10.79442 -78.10618 27578 ft 435 kts 332°
2026-04-30 06:35 -10.76748 -78.12033 27911 ft 437 kts 332°
2026-04-30 06:36 -10.74034 -78.13457 28225 ft 439 kts 332°
2026-04-30 06:36 -10.71312 -78.14885 28537 ft 442 kts 332°
2026-04-30 06:36 -10.68572 -78.16323 28838 ft 444 kts 332°
2026-04-30 06:36 -10.65825 -78.17763 29141 ft 446 kts 332°
2026-04-30 06:37 -10.63061 -78.19213 29434 ft 448 kts 332°
2026-04-30 06:37 -10.60324 -78.20648 29721 ft 450 kts 332°
2026-04-30 06:37 -10.57537 -78.22109 30001 ft 452 kts 332°
2026-04-30 06:37 -10.54740 -78.23574 30274 ft 454 kts 332°
2026-04-30 06:38 -10.51927 -78.25048 30545 ft 455 kts 332°
2026-04-30 06:38 -10.49110 -78.26524 30809 ft 457 kts 332°
2026-04-30 06:38 -10.46275 -78.28008 31132 ft 457 kts 332°
2026-04-30 06:38 -10.43453 -78.29486 31494 ft 457 kts 332°
2026-04-30 06:39 -10.40629 -78.30964 31851 ft 456 kts 332°
2026-04-30 06:39 -10.37804 -78.32443 32009 ft 457 kts 332°
2026-04-30 06:39 -10.34981 -78.33920 32000 ft 455 kts 332°
2026-04-30 06:40 -10.29365 -78.36859 31987 ft 453 kts 332°
2026-04-30 06:40 -10.23772 -78.39783 31997 ft 451 kts 332°
2026-04-30 06:41 -10.18239 -78.42675 31998 ft 449 kts 332°
2026-04-30 06:41 -10.12696 -78.45571 31999 ft 448 kts 332°
2026-04-30 06:42 -10.07165 -78.48460 31998 ft 446 kts 332°
2026-04-30 06:42 -10.01657 -78.51336 31998 ft 445 kts 332°
2026-04-30 06:43 -9.96163 -78.54203 31998 ft 444 kts 332°
2026-04-30 06:43 -9.90679 -78.57064 31999 ft 442 kts 332°
2026-04-30 06:44 -9.85206 -78.59918 31999 ft 442 kts 332°
2026-04-30 06:44 -9.79745 -78.62766 31999 ft 441 kts 332°
2026-04-30 06:45 -9.74295 -78.65606 31999 ft 440 kts 332°
2026-04-30 06:45 -9.68844 -78.68419 32000 ft 439 kts 333°
2026-04-30 06:46 -9.63388 -78.71200 31999 ft 439 kts 333°
2026-04-30 06:46 -9.57941 -78.73977 31999 ft 438 kts 333°
2026-04-30 06:47 -9.52494 -78.76753 31999 ft 437 kts 333°
2026-04-30 06:47 -9.47062 -78.79521 32005 ft 437 kts 333°
2026-04-30 06:48 -9.41632 -78.82287 32000 ft 437 kts 333°
2026-04-30 06:48 -9.36200 -78.85053 31999 ft 436 kts 333°
2026-04-30 06:49 -9.30779 -78.87812 32000 ft 436 kts 333°
2026-04-30 06:49 -9.25352 -78.90572 32000 ft 436 kts 333°
2026-04-30 06:50 -9.19971 -78.93307 32000 ft 436 kts 333°
2026-04-30 06:50 -9.14558 -78.96058 32000 ft 435 kts 333°
2026-04-30 06:51 -9.09145 -78.98809 32000 ft 435 kts 333°
2026-04-30 06:51 -9.03739 -79.01554 32000 ft 435 kts 333°
2026-04-30 06:52 -8.98329 -79.04301 32000 ft 435 kts 333°
2026-04-30 06:52 -8.93800 -79.06599 32000 ft 435 kts 333°
2026-04-30 06:53 -8.88430 -79.09324 32000 ft 435 kts 333°
2026-04-30 06:53 -8.83026 -79.12065 32000 ft 435 kts 333°
2026-04-30 06:54 -8.77625 -79.14804 32000 ft 434 kts 333°
2026-04-30 06:54 -8.72219 -79.17544 32000 ft 434 kts 333°
2026-04-30 06:55 -8.66819 -79.20280 32000 ft 434 kts 333°
2026-04-30 06:55 -8.61415 -79.23018 32000 ft 434 kts 333°
2026-04-30 06:56 -8.56012 -79.25754 32000 ft 434 kts 333°
2026-04-30 06:56 -8.50612 -79.28488 32000 ft 434 kts 333°
2026-04-30 06:57 -8.45239 -79.31207 32000 ft 434 kts 333°
2026-04-30 06:57 -8.39840 -79.33938 32000 ft 434 kts 333°
2026-04-30 06:58 -8.34437 -79.36671 32000 ft 434 kts 333°
2026-04-30 06:58 -8.29032 -79.39404 32000 ft 434 kts 333°
2026-04-30 06:59 -8.23629 -79.42134 32000 ft 434 kts 333°
2026-04-30 06:59 -8.18220 -79.44867 32000 ft 434 kts 333°
2026-04-30 07:00 -8.12817 -79.47597 32000 ft 434 kts 333°
2026-04-30 07:00 -8.07410 -79.50327 32000 ft 434 kts 333°
2026-04-30 07:01 -8.02005 -79.53056 32000 ft 434 kts 333°
2026-04-30 07:01 -7.96597 -79.55785 32000 ft 435 kts 333°
2026-04-30 07:02 -7.91190 -79.58513 32000 ft 435 kts 333°
2026-04-30 07:02 -7.85786 -79.61239 32000 ft 435 kts 333°
2026-04-30 07:03 -7.80373 -79.63968 32000 ft 435 kts 333°
2026-04-30 07:03 -7.74998 -79.66677 32000 ft 435 kts 333°
2026-04-30 07:04 -7.69584 -79.69405 32000 ft 435 kts 333°
2026-04-30 07:04 -7.64170 -79.72133 32000 ft 435 kts 333°
2026-04-30 07:05 -7.56055 -79.76220 32000 ft 435 kts 333°
2026-04-30 07:05 -7.50642 -79.78945 32000 ft 435 kts 333°
2026-04-30 07:06 -7.45233 -79.81667 32000 ft 435 kts 333°
2026-04-30 07:06 -7.39820 -79.84391 32000 ft 435 kts 333°
2026-04-30 07:07 -7.34402 -79.87116 32000 ft 435 kts 333°
2026-04-30 07:07 -7.28988 -79.89838 32000 ft 435 kts 333°
2026-04-30 07:08 -7.23571 -79.92562 32000 ft 435 kts 333°
2026-04-30 07:08 -7.18160 -79.95281 32000 ft 435 kts 333°
2026-04-30 07:09 -7.12744 -79.98003 32000 ft 435 kts 333°
2026-04-30 07:09 -7.07365 -80.00705 32000 ft 435 kts 333°
2026-04-30 07:10 -7.01910 -80.03444 32000 ft 435 kts 333°
2026-04-30 07:10 -6.96530 -80.06146 32000 ft 435 kts 333°
2026-04-30 07:11 -6.91113 -80.08865 32000 ft 435 kts 333°
2026-04-30 07:11 -6.85693 -80.11582 32000 ft 435 kts 333°
2026-04-30 07:12 -6.80276 -80.14294 32000 ft 435 kts 333°
2026-04-30 07:12 -6.74855 -80.17006 32000 ft 435 kts 333°
2026-04-30 07:13 -6.69433 -80.19719 32000 ft 435 kts 333°
2026-04-30 07:13 -6.64014 -80.22430 32000 ft 435 kts 333°
2026-04-30 07:14 -6.58590 -80.25142 32000 ft 435 kts 333°
2026-04-30 07:14 -6.53162 -80.27856 32000 ft 435 kts 333°
2026-04-30 07:15 -6.47773 -80.30550 32000 ft 435 kts 333°
2026-04-30 07:15 -6.42347 -80.33261 32000 ft 435 kts 333°
2026-04-30 07:16 -6.36927 -80.35969 32000 ft 435 kts 333°
2026-04-30 07:16 -6.31502 -80.38678 32000 ft 435 kts 333°
2026-04-30 07:17 -6.26073 -80.41389 32000 ft 435 kts 333°
2026-04-30 07:18 -6.17935 -80.45452 32000 ft 436 kts 333°
2026-04-30 07:18 -6.12503 -80.48163 32000 ft 436 kts 333°
2026-04-30 07:19 -6.07081 -80.50869 32000 ft 436 kts 333°
2026-04-30 07:19 -6.01650 -80.53578 32000 ft 436 kts 333°
2026-04-30 07:20 -5.96220 -80.56286 32000 ft 436 kts 333°
2026-04-30 07:20 -5.90789 -80.58994 32000 ft 436 kts 333°
2026-04-30 07:21 -5.85356 -80.61702 32000 ft 436 kts 333°
2026-04-30 07:21 -5.79951 -80.64396 32000 ft 436 kts 333°
2026-04-30 07:22 -5.71800 -80.68458 32000 ft 436 kts 333°
2026-04-30 07:22 -5.66362 -80.71166 32000 ft 436 kts 333°
2026-04-30 07:23 -5.60925 -80.73874 32000 ft 436 kts 333°
2026-04-30 07:23 -5.55477 -80.76587 32000 ft 436 kts 333°
2026-04-30 07:24 -5.50036 -80.79295 32000 ft 436 kts 333°
2026-04-30 07:24 -5.44597 -80.82002 32000 ft 437 kts 333°
2026-04-30 07:25 -5.39186 -80.84695 32000 ft 437 kts 333°
2026-04-30 07:25 -5.33743 -80.87403 32000 ft 437 kts 333°
2026-04-30 07:26 -5.28294 -80.90114 32000 ft 437 kts 333°
2026-04-30 07:26 -5.22847 -80.92822 32000 ft 437 kts 333°
2026-04-30 07:27 -5.17396 -80.95533 32001 ft 437 kts 333°
2026-04-30 07:27 -5.11949 -80.98255 32000 ft 437 kts 333°
2026-04-30 07:28 -5.06512 -81.00979 32000 ft 437 kts 333°
2026-04-30 07:28 -5.01064 -81.03707 32000 ft 437 kts 333°
2026-04-30 07:29 -4.95619 -81.06434 32001 ft 437 kts 333°
2026-04-30 07:29 -4.90206 -81.09143 32000 ft 437 kts 333°
2026-04-30 07:30 -4.82041 -81.13231 32000 ft 437 kts 333°
2026-04-30 07:31 -4.76590 -81.15959 32000 ft 438 kts 333°
2026-04-30 07:31 -4.71141 -81.18685 32000 ft 438 kts 333°
2026-04-30 07:32 -4.65685 -81.21414 32000 ft 438 kts 333°
2026-04-30 07:32 -4.60237 -81.24139 32000 ft 438 kts 333°
2026-04-30 07:33 -4.54539 -81.26206 32013 ft 437 kts 344°
2026-04-30 07:33 -4.48722 -81.27854 32001 ft 437 kts 344°
2026-04-30 07:34 -4.42862 -81.29501 32000 ft 437 kts 344°
2026-04-30 07:34 -4.36997 -81.31147 32000 ft 438 kts 344°
2026-04-30 07:35 -4.31139 -81.32792 32000 ft 438 kts 344°
2026-04-30 07:35 -4.25271 -81.34438 32000 ft 438 kts 344°
2026-04-30 07:36 -4.19406 -81.36083 32000 ft 438 kts 344°
2026-04-30 07:36 -4.13537 -81.37729 32000 ft 438 kts 344°
2026-04-30 07:37 -4.07668 -81.39375 32000 ft 438 kts 344°
2026-04-30 07:37 -4.01797 -81.41021 32000 ft 438 kts 344°
2026-04-30 07:38 -3.95922 -81.42668 32000 ft 438 kts 344°
2026-04-30 07:38 -3.90049 -81.44314 32000 ft 438 kts 344°
2026-04-30 07:39 -3.84168 -81.45962 32000 ft 438 kts 344°
2026-04-30 07:39 -3.78330 -81.47598 32000 ft 438 kts 344°
2026-04-30 07:40 -3.72454 -81.49244 32000 ft 438 kts 344°
2026-04-30 07:40 -3.66575 -81.50891 32000 ft 438 kts 344°
2026-04-30 07:41 -3.60703 -81.52536 32000 ft 439 kts 344°
2026-04-30 07:41 -3.54819 -81.54184 32000 ft 439 kts 344°
2026-04-30 07:42 -3.49937 -81.55551 32000 ft 439 kts 344°
2026-04-30 07:42 -3.43069 -81.57474 32000 ft 439 kts 344°
2026-04-30 07:43 -3.38143 -81.58675 32006 ft 438 kts 348°
2026-04-30 07:43 -3.32164 -81.59918 31999 ft 439 kts 348°
2026-04-30 07:44 -3.26193 -81.61186 32000 ft 439 kts 347°
2026-04-30 07:44 -3.20218 -81.62459 32000 ft 439 kts 347°
2026-04-30 07:45 -3.14246 -81.63731 32000 ft 439 kts 347°
2026-04-30 07:45 -3.08277 -81.65002 32000 ft 439 kts 347°
2026-04-30 07:46 -3.02304 -81.66274 32000 ft 439 kts 347°
2026-04-30 07:46 -2.96322 -81.67547 32000 ft 439 kts 347°
2026-04-30 07:47 -2.90341 -81.68821 32000 ft 439 kts 347°
2026-04-30 07:47 -2.84359 -81.70094 32000 ft 439 kts 347°
2026-04-30 07:48 -2.78373 -81.71368 32000 ft 439 kts 347°
2026-04-30 07:48 -2.72396 -81.72640 32000 ft 439 kts 347°
2026-04-30 07:49 -2.66409 -81.73914 32000 ft 440 kts 347°
2026-04-30 07:49 -2.60429 -81.75187 32000 ft 440 kts 347°
2026-04-30 07:50 -2.54442 -81.76460 32000 ft 440 kts 347°
2026-04-30 07:50 -2.48462 -81.77732 32000 ft 440 kts 347°
2026-04-30 07:51 -2.42473 -81.79006 32000 ft 440 kts 347°
2026-04-30 07:51 -2.36487 -81.80279 32000 ft 440 kts 347°
2026-04-30 07:52 -2.30500 -81.81553 32000 ft 440 kts 347°
2026-04-30 07:52 -2.24550 -81.82818 32000 ft 440 kts 347°
2026-04-30 07:53 -2.18558 -81.84092 32000 ft 440 kts 347°
2026-04-30 07:53 -2.12570 -81.85365 32000 ft 440 kts 347°
2026-04-30 07:54 -2.06581 -81.86639 32000 ft 440 kts 347°
2026-04-30 07:54 -2.00726 -81.88400 32006 ft 439 kts 342°
2026-04-30 07:55 -1.94881 -81.90217 32001 ft 440 kts 342°
2026-04-30 07:55 -1.89035 -81.92012 32000 ft 440 kts 342°
2026-04-30 07:56 -1.83182 -81.93808 32000 ft 440 kts 342°
2026-04-30 07:56 -1.77332 -81.95602 32000 ft 440 kts 342°
2026-04-30 07:57 -1.71478 -81.97397 32000 ft 440 kts 342°
2026-04-30 07:57 -1.65626 -81.99191 32000 ft 440 kts 342°
2026-04-30 07:58 -1.59766 -82.00988 32000 ft 440 kts 342°
2026-04-30 07:58 -1.53908 -82.02784 32000 ft 440 kts 342°
2026-04-30 07:59 -1.48042 -82.04583 32000 ft 440 kts 342°
2026-04-30 07:59 -1.42182 -82.06379 32000 ft 441 kts 342°
2026-04-30 08:00 -1.33388 -82.09075 32000 ft 441 kts 342°
2026-04-30 08:00 -1.27525 -82.10872 32000 ft 441 kts 342°
2026-04-30 08:01 -1.21699 -82.12658 32000 ft 441 kts 342°
2026-04-30 08:01 -1.15831 -82.14457 32000 ft 441 kts 342°
2026-04-30 08:02 -1.07024 -82.17156 32000 ft 441 kts 342°
2026-04-30 08:03 -0.95287 -82.20753 32000 ft 441 kts 342°
2026-04-30 08:04 -0.89416 -82.22558 32000 ft 441 kts 342°
2026-04-30 08:04 -0.83550 -82.24363 32000 ft 441 kts 342°
2026-04-30 08:05 -0.77676 -82.26170 32000 ft 441 kts 342°
2026-04-30 08:05 -0.71802 -82.27977 32000 ft 442 kts 342°
2026-04-30 08:06 -0.65931 -82.29783 32000 ft 442 kts 342°
2026-04-30 08:06 -0.60057 -82.31590 32000 ft 442 kts 342°
2026-04-30 08:07 -0.54216 -82.33387 32000 ft 442 kts 342°
2026-04-30 08:07 -0.48340 -82.35195 32000 ft 442 kts 342°
2026-04-30 08:08 -0.42459 -82.37004 32000 ft 442 kts 342°
2026-04-30 08:08 -0.36581 -82.38812 31995 ft 442 kts 342°
2026-04-30 08:09 -0.30704 -82.40620 32000 ft 442 kts 342°
2026-04-30 08:09 -0.24821 -82.42430 32000 ft 442 kts 342°
2026-04-30 08:10 -0.18973 -82.44228 32000 ft 442 kts 342°
2026-04-30 08:10 -0.13093 -82.46038 32000 ft 442 kts 342°
2026-04-30 08:11 -0.07213 -82.47847 32000 ft 442 kts 342°
2026-04-30 08:11 -0.01331 -82.49657 32000 ft 442 kts 342°
2026-04-30 08:12 0.04551 -82.51467 32000 ft 442 kts 342°
2026-04-30 08:12 0.10433 -82.53277 32000 ft 442 kts 342°
2026-04-30 08:13 0.16317 -82.55087 32000 ft 442 kts 342°
2026-04-30 08:13 0.22197 -82.56897 32000 ft 442 kts 342°
2026-04-30 08:14 0.28081 -82.58707 32000 ft 442 kts 342°
2026-04-30 08:14 0.33965 -82.60518 32000 ft 442 kts 342°
2026-04-30 08:15 0.39847 -82.62328 32000 ft 442 kts 342°
2026-04-30 08:15 0.45733 -82.64139 32000 ft 442 kts 342°
2026-04-30 08:16 0.51623 -82.65951 32000 ft 442 kts 342°
2026-04-30 08:16 0.57509 -82.67763 32000 ft 443 kts 342°
2026-04-30 08:17 0.63396 -82.69574 32000 ft 443 kts 342°
2026-04-30 08:17 0.69283 -82.71386 32000 ft 443 kts 342°
2026-04-30 08:18 0.75130 -82.73185 32000 ft 443 kts 342°
2026-04-30 08:18 0.81020 -82.74998 32000 ft 443 kts 342°
2026-04-30 08:19 0.86909 -82.76811 32000 ft 443 kts 342°
2026-04-30 08:19 0.92804 -82.78625 32000 ft 443 kts 342°
2026-04-30 08:20 0.98690 -82.80437 32000 ft 443 kts 342°
2026-04-30 08:20 1.04580 -82.82250 32000 ft 443 kts 342°
2026-04-30 08:21 1.10472 -82.84063 32000 ft 443 kts 342°
2026-04-30 08:21 1.16367 -82.85878 32000 ft 443 kts 342°
2026-04-30 08:22 1.22254 -82.87690 32000 ft 443 kts 342°
2026-04-30 08:22 1.28148 -82.89504 32000 ft 443 kts 342°
2026-04-30 08:23 1.34041 -82.91319 32000 ft 443 kts 342°
2026-04-30 08:23 1.39931 -82.93132 32000 ft 443 kts 342°
2026-04-30 08:24 1.45875 -82.94777 32001 ft 443 kts 344°
2026-04-30 08:24 1.51785 -82.96391 32000 ft 443 kts 344°
2026-04-30 08:25 1.57770 -82.98029 32000 ft 443 kts 344°
2026-04-30 08:25 1.63681 -82.99647 32000 ft 443 kts 344°
2026-04-30 08:26 1.69636 -83.01277 32000 ft 443 kts 344°
2026-04-30 08:26 1.75583 -83.02905 32000 ft 443 kts 344°
2026-04-30 08:27 1.81535 -83.04535 32000 ft 443 kts 344°
2026-04-30 08:27 1.87488 -83.06165 32000 ft 443 kts 344°
2026-04-30 08:28 1.93439 -83.07794 32000 ft 443 kts 344°
2026-04-30 08:28 1.99349 -83.09413 32000 ft 443 kts 344°
2026-04-30 08:29 2.05299 -83.11042 32000 ft 443 kts 344°
2026-04-30 08:29 2.11252 -83.12673 32000 ft 444 kts 344°
2026-04-30 08:30 2.16207 -83.14030 32000 ft 444 kts 344°
2026-04-30 08:30 2.22163 -83.15661 32000 ft 444 kts 344°
2026-04-30 08:31 2.28122 -83.17294 32000 ft 444 kts 344°
2026-04-30 08:31 2.34079 -83.18926 32000 ft 444 kts 344°
2026-04-30 08:32 2.40036 -83.20558 32000 ft 444 kts 344°
2026-04-30 08:32 2.45990 -83.22190 32000 ft 444 kts 344°
2026-04-30 08:33 2.51947 -83.23822 32000 ft 444 kts 344°
2026-04-30 08:33 2.57905 -83.25455 32000 ft 444 kts 344°
2026-04-30 08:34 2.63868 -83.27090 32000 ft 444 kts 344°
2026-04-30 08:34 2.69824 -83.28722 32000 ft 444 kts 344°
2026-04-30 08:35 2.75785 -83.30357 32000 ft 444 kts 344°
2026-04-30 08:35 2.81745 -83.31991 32000 ft 444 kts 344°
2026-04-30 08:36 2.87713 -83.33627 32000 ft 444 kts 344°
2026-04-30 08:36 2.93675 -83.35262 32000 ft 444 kts 344°
2026-04-30 08:37 2.99642 -83.36899 32000 ft 444 kts 344°
2026-04-30 08:37 3.05569 -83.38525 32000 ft 444 kts 344°
2026-04-30 08:38 3.11536 -83.40162 31999 ft 444 kts 344°
2026-04-30 08:38 3.17500 -83.41798 32000 ft 444 kts 344°
2026-04-30 08:39 3.23466 -83.43435 32000 ft 444 kts 344°
2026-04-30 08:39 3.29429 -83.45072 32000 ft 445 kts 344°
2026-04-30 08:40 3.35398 -83.46710 32000 ft 445 kts 344°
2026-04-30 08:40 3.41366 -83.48348 32000 ft 445 kts 344°
2026-04-30 08:41 3.47334 -83.49987 32000 ft 445 kts 344°
2026-04-30 08:41 3.53309 -83.51627 32000 ft 445 kts 344°
2026-04-30 08:42 3.59280 -83.53267 32000 ft 445 kts 344°
2026-04-30 08:42 3.65253 -83.54908 32000 ft 445 kts 344°
2026-04-30 08:43 3.71224 -83.56548 32000 ft 445 kts 344°
2026-04-30 08:43 3.77202 -83.58190 32000 ft 445 kts 344°
2026-04-30 08:44 3.83175 -83.59831 32000 ft 445 kts 344°
2026-04-30 08:44 3.89112 -83.61463 32000 ft 445 kts 344°
2026-04-30 08:45 3.95085 -83.63105 32000 ft 445 kts 344°
2026-04-30 08:45 4.01061 -83.64747 32000 ft 445 kts 344°
2026-04-30 08:46 4.07041 -83.66391 32000 ft 445 kts 344°
2026-04-30 08:46 4.13018 -83.68035 32000 ft 445 kts 344°
2026-04-30 08:47 4.18991 -83.69677 32000 ft 445 kts 344°
2026-04-30 08:47 4.24970 -83.71322 32000 ft 445 kts 344°
2026-04-30 08:48 4.30945 -83.72966 32000 ft 445 kts 344°
2026-04-30 08:48 4.36923 -83.74611 32000 ft 445 kts 344°
2026-04-30 08:49 4.42902 -83.76256 32000 ft 446 kts 344°
2026-04-30 08:49 4.48885 -83.77903 32000 ft 446 kts 344°
2026-04-30 08:50 4.54863 -83.79548 32000 ft 446 kts 344°
2026-04-30 08:50 4.60843 -83.81195 32000 ft 446 kts 344°
2026-04-30 08:51 4.66824 -83.82842 32000 ft 446 kts 344°
2026-04-30 08:51 4.72807 -83.84490 32000 ft 446 kts 344°
2026-04-30 08:52 4.78792 -83.86139 32000 ft 446 kts 344°
2026-04-30 08:52 4.84779 -83.87788 32000 ft 446 kts 344°
2026-04-30 08:53 4.90767 -83.89438 32000 ft 446 kts 344°
2026-04-30 08:53 4.96715 -83.91078 32000 ft 446 kts 344°
2026-04-30 08:54 5.02702 -83.92728 32000 ft 446 kts 344°
2026-04-30 08:54 5.08689 -83.94379 32000 ft 446 kts 344°
2026-04-30 08:55 5.14682 -83.96032 32000 ft 446 kts 344°
2026-04-30 08:55 5.20673 -83.97685 32000 ft 447 kts 344°
2026-04-30 08:56 5.26669 -83.99339 32000 ft 447 kts 344°
2026-04-30 08:56 5.32666 -84.00994 32000 ft 447 kts 344°
2026-04-30 08:57 5.38660 -84.02648 32000 ft 447 kts 344°
2026-04-30 08:57 5.44648 -84.04301 32000 ft 447 kts 344°
2026-04-30 08:58 5.50606 -84.05946 32000 ft 447 kts 344°
2026-04-30 08:58 5.56597 -84.07601 32000 ft 447 kts 344°
2026-04-30 08:59 5.62591 -84.09256 32000 ft 447 kts 344°
2026-04-30 08:59 5.68625 -84.10924 32000 ft 447 kts 344°
2026-04-30 09:00 5.74575 -84.12568 32000 ft 447 kts 344°
2026-04-30 09:00 5.80572 -84.14226 32000 ft 447 kts 344°
2026-04-30 09:01 5.86696 -84.15234 31992 ft 446 kts 352°
2026-04-30 09:01 5.92842 -84.16147 32001 ft 446 kts 351°
2026-04-30 09:02 6.02055 -84.17562 32000 ft 447 kts 351°
2026-04-30 09:02 6.08200 -84.18508 32000 ft 447 kts 351°
2026-04-30 09:03 6.14348 -84.19455 32000 ft 447 kts 351°
2026-04-30 09:03 6.20458 -84.20397 32000 ft 447 kts 351°
2026-04-30 09:04 6.26608 -84.21344 32000 ft 447 kts 351°
2026-04-30 09:04 6.32758 -84.22292 32000 ft 447 kts 351°
2026-04-30 09:05 6.38905 -84.23240 32000 ft 447 kts 351°
2026-04-30 09:05 6.45050 -84.24188 32000 ft 447 kts 351°
2026-04-30 09:06 6.51205 -84.25138 32000 ft 447 kts 351°
2026-04-30 09:06 6.57356 -84.26087 32000 ft 447 kts 351°
2026-04-30 09:07 6.63502 -84.27035 32000 ft 447 kts 351°
2026-04-30 09:07 6.69622 -84.27980 32000 ft 447 kts 351°
2026-04-30 09:08 6.75769 -84.28929 32000 ft 447 kts 351°
2026-04-30 09:08 6.81918 -84.29879 32000 ft 447 kts 351°
2026-04-30 09:09 6.88073 -84.30830 32000 ft 447 kts 351°
2026-04-30 09:09 6.94222 -84.31780 32000 ft 447 kts 351°
2026-04-30 09:10 7.00379 -84.32732 32000 ft 447 kts 351°
2026-04-30 09:10 7.06530 -84.33683 32000 ft 447 kts 351°
2026-04-30 09:11 7.12648 -84.34630 32000 ft 447 kts 351°
2026-04-30 09:11 7.18803 -84.35582 32000 ft 447 kts 351°
2026-04-30 09:12 7.24956 -84.36534 32000 ft 447 kts 351°
2026-04-30 09:12 7.31112 -84.37487 32000 ft 447 kts 351°
2026-04-30 09:13 7.37265 -84.38440 32000 ft 447 kts 351°
2026-04-30 09:13 7.43421 -84.39393 32000 ft 447 kts 351°
2026-04-30 09:14 7.49572 -84.40346 32000 ft 447 kts 351°
2026-04-30 09:14 7.55731 -84.41300 32000 ft 447 kts 351°
2026-04-30 09:15 7.61885 -84.42254 32000 ft 447 kts 351°
2026-04-30 09:15 7.68042 -84.43209 32000 ft 448 kts 351°
2026-04-30 09:16 7.74196 -84.44163 32000 ft 448 kts 351°
2026-04-30 09:16 7.79315 -84.44958 32000 ft 448 kts 351°
2026-04-30 09:17 7.85474 -84.45913 32000 ft 448 kts 351°
2026-04-30 09:17 7.92634 -84.47025 32000 ft 448 kts 351°
2026-04-30 09:18 7.97798 -84.47827 32000 ft 448 kts 351°
2026-04-30 09:18 8.03956 -84.48783 32000 ft 448 kts 351°
2026-04-30 09:19 8.10120 -84.49741 32000 ft 448 kts 351°
2026-04-30 09:19 8.16282 -84.50699 32000 ft 448 kts 351°
2026-04-30 09:20 8.22439 -84.51656 32000 ft 448 kts 351°
2026-04-30 09:20 8.28603 -84.52615 32000 ft 448 kts 351°
2026-04-30 09:21 8.34726 -84.53567 32000 ft 448 kts 351°
2026-04-30 09:21 8.40894 -84.54527 32000 ft 448 kts 351°
2026-04-30 09:22 8.47059 -84.55487 32000 ft 448 kts 351°
2026-04-30 09:22 8.53231 -84.56448 32000 ft 448 kts 351°
2026-04-30 09:23 8.59400 -84.57409 32000 ft 448 kts 351°
2026-04-30 09:23 8.65571 -84.58370 32000 ft 449 kts 351°
2026-04-30 09:24 8.71743 -84.59332 32000 ft 449 kts 351°
2026-04-30 09:24 8.77911 -84.60294 32000 ft 449 kts 351°
2026-04-30 09:25 8.84085 -84.61257 32000 ft 449 kts 351°
2026-04-30 09:25 8.90255 -84.62220 32000 ft 449 kts 351°
2026-04-30 09:26 8.96427 -84.63183 32000 ft 449 kts 351°
2026-04-30 09:26 9.02602 -84.64148 32000 ft 449 kts 351°
2026-04-30 09:27 9.08781 -84.65113 32000 ft 449 kts 351°
2026-04-30 09:27 9.14917 -84.66071 32000 ft 449 kts 351°
2026-04-30 09:28 9.21091 -84.67036 32000 ft 449 kts 351°
2026-04-30 09:28 9.27265 -84.68002 32000 ft 449 kts 351°
2026-04-30 09:29 9.33442 -84.68968 32000 ft 449 kts 351°
2026-04-30 09:29 9.39620 -84.69934 32000 ft 449 kts 351°
2026-04-30 09:30 9.45795 -84.70901 32000 ft 449 kts 351°
2026-04-30 09:30 9.51977 -84.71869 32000 ft 449 kts 351°
2026-04-30 09:31 9.58152 -84.72836 32000 ft 449 kts 351°
2026-04-30 09:31 9.64338 -84.73806 32000 ft 449 kts 351°
2026-04-30 09:32 9.70515 -84.74774 32000 ft 449 kts 351°
2026-04-30 09:32 9.76690 -84.75742 32000 ft 449 kts 351°
2026-04-30 09:33 9.82867 -84.76711 32000 ft 449 kts 351°
2026-04-30 09:33 9.89046 -84.77681 32000 ft 449 kts 351°
2026-04-30 09:34 9.95185 -84.78645 32000 ft 449 kts 351°
2026-04-30 09:34 10.01363 -84.79615 32000 ft 449 kts 351°
2026-04-30 09:35 10.07585 -84.80592 32001 ft 449 kts 351°
2026-04-30 09:35 10.13729 -84.81558 32000 ft 449 kts 351°
2026-04-30 09:36 10.19911 -84.82530 32001 ft 450 kts 351°
2026-04-30 09:36 10.26092 -84.83503 32000 ft 450 kts 351°
2026-04-30 09:37 10.32288 -84.84478 32003 ft 450 kts 351°
2026-04-30 09:37 10.38475 -84.85452 31999 ft 450 kts 351°
2026-04-30 09:38 10.44665 -84.86426 31999 ft 450 kts 351°
2026-04-30 09:38 10.50853 -84.87401 32000 ft 450 kts 351°
2026-04-30 09:39 10.57043 -84.88377 32001 ft 450 kts 351°
2026-04-30 09:39 10.63239 -84.89354 32000 ft 450 kts 351°
2026-04-30 09:40 10.69427 -84.90330 32000 ft 450 kts 351°
2026-04-30 09:40 10.75579 -84.91301 32000 ft 450 kts 351°
2026-04-30 09:41 10.81770 -84.92278 32000 ft 450 kts 351°
2026-04-30 09:41 10.87962 -84.93256 32000 ft 450 kts 351°
2026-04-30 09:42 10.94155 -84.94235 32000 ft 450 kts 351°
2026-04-30 09:42 11.00346 -84.95213 32000 ft 450 kts 351°
2026-04-30 09:43 11.06534 -84.96192 32000 ft 450 kts 351°
2026-04-30 09:43 11.12730 -84.97172 32000 ft 450 kts 351°
2026-04-30 09:44 11.18920 -84.98152 32000 ft 450 kts 351°
2026-04-30 09:44 11.25117 -84.99133 32000 ft 450 kts 351°
2026-04-30 09:45 11.31316 -85.00115 32000 ft 450 kts 351°
2026-04-30 09:45 11.37470 -85.01090 32000 ft 450 kts 351°
2026-04-30 09:46 11.43663 -85.02072 32000 ft 450 kts 351°
2026-04-30 09:46 11.49856 -85.03054 32000 ft 450 kts 351°
2026-04-30 09:47 11.56052 -85.04038 32000 ft 451 kts 351°
2026-04-30 09:47 11.62247 -85.05021 32001 ft 451 kts 351°
2026-04-30 09:48 11.68448 -85.06006 31998 ft 451 kts 351°
2026-04-30 09:48 11.74644 -85.06991 32000 ft 451 kts 351°
2026-04-30 09:49 11.80845 -85.07977 32002 ft 451 kts 351°
2026-04-30 09:49 11.87040 -85.08962 31999 ft 451 kts 351°
2026-04-30 09:50 11.93249 -85.09950 32000 ft 451 kts 351°
2026-04-30 09:50 11.99456 -85.10938 32001 ft 451 kts 351°
2026-04-30 09:51 12.05657 -85.11926 32001 ft 451 kts 351°
2026-04-30 09:51 12.11861 -85.12914 32000 ft 451 kts 351°
2026-04-30 09:52 12.18065 -85.13903 32000 ft 451 kts 351°
2026-04-30 09:52 12.24272 -85.14893 32001 ft 451 kts 351°
2026-04-30 09:53 12.30472 -85.15883 32000 ft 451 kts 351°
2026-04-30 09:53 12.36645 -85.16868 32001 ft 451 kts 351°
2026-04-30 09:54 12.42851 -85.17860 32001 ft 451 kts 351°
2026-04-30 09:54 12.49058 -85.18851 32000 ft 451 kts 351°
2026-04-30 09:55 12.55260 -85.19843 31999 ft 451 kts 351°
2026-04-30 09:55 12.61463 -85.20835 32000 ft 451 kts 351°
2026-04-30 09:56 12.67668 -85.21828 32000 ft 451 kts 351°
2026-04-30 09:56 12.73877 -85.22822 31999 ft 451 kts 351°
2026-04-30 09:57 12.80078 -85.23816 32000 ft 451 kts 351°
2026-04-30 09:57 12.86284 -85.24810 32000 ft 451 kts 351°
2026-04-30 09:58 12.92453 -85.25800 32000 ft 451 kts 351°
2026-04-30 09:58 12.98657 -85.26795 32003 ft 451 kts 351°
2026-04-30 09:59 13.11076 -85.28789 32000 ft 452 kts 351°
2026-04-30 10:00 13.20392 -85.30286 32001 ft 452 kts 351°
2026-04-30 10:01 13.29715 -85.31785 31999 ft 452 kts 351°
2026-04-30 10:02 13.39028 -85.33284 32000 ft 452 kts 351°
2026-04-30 10:02 13.45240 -85.34285 32000 ft 452 kts 351°
2026-04-30 10:03 13.51454 -85.35286 32000 ft 452 kts 351°
2026-04-30 10:03 13.57626 -85.36281 32001 ft 452 kts 351°
2026-04-30 10:04 13.63837 -85.37283 32000 ft 452 kts 351°
2026-04-30 10:04 13.70050 -85.38286 32001 ft 452 kts 351°
2026-04-30 10:05 13.76264 -85.39289 31999 ft 452 kts 351°
2026-04-30 10:05 13.82477 -85.40293 32000 ft 452 kts 351°
2026-04-30 10:06 13.88696 -85.41298 31999 ft 452 kts 351°
2026-04-30 10:06 13.93868 -85.42135 32001 ft 452 kts 351°
2026-04-30 10:07 14.00090 -85.43142 32000 ft 452 kts 351°
2026-04-30 10:07 14.06305 -85.44148 32000 ft 452 kts 351°
2026-04-30 10:08 14.13533 -85.45319 32002 ft 452 kts 351°
2026-04-30 10:08 14.18747 -85.46164 31999 ft 452 kts 351°
2026-04-30 10:09 14.24963 -85.47172 32001 ft 453 kts 351°
2026-04-30 10:09 14.31187 -85.48182 32000 ft 453 kts 351°
2026-04-30 10:10 14.37412 -85.49193 31999 ft 453 kts 351°
2026-04-30 10:10 14.43638 -85.50204 31999 ft 453 kts 351°
2026-04-30 10:11 14.49860 -85.51216 32001 ft 453 kts 351°
2026-04-30 10:11 14.56088 -85.52229 32000 ft 453 kts 351°
2026-04-30 10:12 14.62269 -85.53234 32001 ft 453 kts 351°
2026-04-30 10:12 14.68492 -85.54248 32000 ft 453 kts 351°
2026-04-30 10:13 14.74713 -85.55261 32000 ft 453 kts 351°
2026-04-30 10:13 14.80940 -85.56276 32000 ft 453 kts 351°
2026-04-30 10:14 14.87166 -85.57291 31999 ft 453 kts 351°
2026-04-30 10:14 14.96501 -85.58815 32000 ft 453 kts 351°
2026-04-30 10:15 15.02729 -85.59832 31999 ft 453 kts 351°
2026-04-30 10:15 15.08955 -85.60850 32000 ft 453 kts 351°
2026-04-30 10:16 15.15176 -85.61868 32001 ft 453 kts 351°
2026-04-30 10:17 15.24521 -85.63397 31999 ft 453 kts 351°
2026-04-30 10:17 15.33863 -85.64927 32000 ft 453 kts 351°
2026-04-30 10:18 15.40052 -85.65942 32001 ft 453 kts 351°
2026-04-30 10:19 15.49394 -85.67474 31999 ft 453 kts 351°
2026-04-30 10:19 15.55620 -85.68496 32000 ft 453 kts 351°
2026-04-30 10:20 15.61850 -85.69520 32000 ft 453 kts 351°
2026-04-30 10:20 15.71193 -85.71056 32001 ft 453 kts 351°
2026-04-30 10:21 15.77428 -85.72082 31999 ft 453 kts 351°
2026-04-30 10:21 15.83661 -85.73108 32000 ft 453 kts 351°
2026-04-30 10:22 15.89885 -85.74133 32000 ft 453 kts 351°
2026-04-30 10:22 15.96112 -85.75159 32000 ft 453 kts 351°
2026-04-30 10:23 16.02343 -85.76187 32000 ft 453 kts 351°
2026-04-30 10:23 16.08569 -85.77215 32000 ft 453 kts 351°
2026-04-30 10:24 16.14798 -85.78244 32000 ft 453 kts 351°
2026-04-30 10:24 16.21025 -85.79273 32000 ft 453 kts 351°
2026-04-30 10:25 16.27259 -85.80303 32000 ft 453 kts 351°
2026-04-30 10:25 16.33492 -85.81335 32000 ft 453 kts 351°
2026-04-30 10:26 16.39723 -85.82367 32000 ft 453 kts 351°
2026-04-30 10:26 16.45954 -85.83399 32000 ft 453 kts 351°
2026-04-30 10:27 16.52182 -85.84432 32000 ft 453 kts 351°
2026-04-30 10:27 16.58375 -85.85459 32000 ft 454 kts 351°
2026-04-30 10:28 16.64607 -85.86494 32000 ft 453 kts 351°
2026-04-30 10:28 16.70842 -85.87529 32000 ft 454 kts 351°
2026-04-30 10:29 16.77079 -85.88566 32000 ft 454 kts 351°
2026-04-30 10:29 16.83318 -85.89604 32000 ft 454 kts 351°
2026-04-30 10:30 16.89552 -85.90641 32000 ft 454 kts 351°
2026-04-30 10:30 16.95786 -85.91680 32000 ft 454 kts 351°
2026-04-30 10:31 17.02021 -85.92719 32000 ft 454 kts 351°
2026-04-30 10:31 17.08259 -85.93759 32000 ft 454 kts 351°
2026-04-30 10:32 17.14489 -85.94799 32000 ft 454 kts 351°
2026-04-30 10:32 17.20727 -85.95841 32000 ft 454 kts 351°
2026-04-30 10:33 17.26964 -85.96883 32000 ft 454 kts 351°
2026-04-30 10:33 17.33210 -85.97928 32000 ft 454 kts 351°
2026-04-30 10:34 17.39446 -85.98972 32000 ft 454 kts 351°
2026-04-30 10:34 17.45648 -86.00010 32000 ft 454 kts 351°
2026-04-30 10:35 17.51884 -86.01055 32000 ft 454 kts 351°
2026-04-30 10:35 17.58126 -86.02102 32000 ft 454 kts 351°
2026-04-30 10:36 17.64364 -86.03149 32000 ft 454 kts 351°
2026-04-30 10:36 17.70603 -86.04197 32000 ft 454 kts 351°
2026-04-30 10:37 17.76843 -86.05245 32000 ft 454 kts 351°
2026-04-30 10:37 17.83083 -86.06295 32000 ft 454 kts 351°
2026-04-30 10:38 17.89320 -86.07345 32000 ft 454 kts 351°
2026-04-30 10:38 17.95565 -86.08396 32000 ft 454 kts 351°
2026-04-30 10:39 18.01804 -86.09448 32000 ft 454 kts 351°
2026-04-30 10:39 18.08043 -86.10500 32000 ft 454 kts 351°
2026-04-30 10:40 18.14286 -86.11554 32000 ft 454 kts 351°
2026-04-30 10:40 18.20525 -86.12607 32000 ft 454 kts 351°
2026-04-30 10:41 18.26769 -86.13663 32000 ft 454 kts 351°
2026-04-30 10:41 18.33006 -86.14718 32000 ft 454 kts 351°
2026-04-30 10:42 18.39213 -86.15768 32000 ft 454 kts 351°
2026-04-30 10:42 18.45457 -86.16826 32000 ft 455 kts 351°
2026-04-30 10:43 18.51702 -86.17884 32000 ft 455 kts 351°
2026-04-30 10:43 18.57950 -86.18944 32000 ft 455 kts 351°
2026-04-30 10:44 18.64197 -86.20004 32000 ft 455 kts 351°
2026-04-30 10:44 18.70443 -86.21065 32000 ft 455 kts 351°
2026-04-30 10:45 18.76691 -86.22127 32000 ft 455 kts 351°
2026-04-30 10:45 18.82939 -86.23190 32000 ft 455 kts 351°
2026-04-30 10:46 18.89192 -86.24255 32000 ft 455 kts 351°
2026-04-30 10:46 18.95400 -86.25313 31995 ft 455 kts 351°
2026-04-30 10:47 19.01655 -86.26379 32000 ft 455 kts 351°
2026-04-30 10:47 19.07911 -86.27447 32000 ft 455 kts 351°
2026-04-30 10:48 19.14166 -86.28515 32000 ft 455 kts 351°
2026-04-30 10:48 19.20421 -86.29584 32000 ft 455 kts 351°
2026-04-30 10:49 19.26673 -86.30653 32000 ft 455 kts 351°
2026-04-30 10:49 19.32928 -86.31724 32000 ft 455 kts 351°
2026-04-30 10:50 19.39141 -86.32788 32000 ft 455 kts 351°
2026-04-30 10:50 19.45396 -86.33860 32000 ft 455 kts 351°
2026-04-30 10:51 19.51648 -86.34933 32000 ft 455 kts 351°
2026-04-30 10:51 19.57901 -86.36007 32000 ft 455 kts 351°
2026-04-30 10:52 19.64136 -86.37382 32009 ft 454 kts 345°
2026-04-30 10:52 19.70222 -86.39060 32000 ft 455 kts 345°
2026-04-30 10:53 19.76356 -86.40718 32000 ft 455 kts 345°
2026-04-30 10:53 19.82482 -86.42405 32000 ft 455 kts 344°
2026-04-30 10:54 19.87605 -86.43876 32000 ft 455 kts 345°
2026-04-30 10:54 19.93679 -86.45617 32000 ft 455 kts 345°
2026-04-30 10:55 19.99792 -86.47370 32000 ft 455 kts 345°
2026-04-30 10:55 20.05902 -86.49124 32000 ft 455 kts 345°
2026-04-30 10:56 20.12023 -86.50869 32000 ft 455 kts 345°
2026-04-30 10:56 20.18149 -86.52607 32000 ft 455 kts 345°
2026-04-30 10:57 20.24275 -86.54345 32000 ft 455 kts 345°
2026-04-30 10:57 20.30398 -86.56084 32000 ft 455 kts 345°
2026-04-30 10:58 20.36521 -86.57825 32000 ft 455 kts 345°
2026-04-30 10:58 20.42592 -86.59564 31999 ft 451 kts 345°
2026-04-30 10:59 20.48610 -86.61291 32000 ft 451 kts 345°
2026-04-30 10:59 20.54667 -86.63031 32000 ft 451 kts 345°
2026-04-30 11:00 20.60725 -86.64772 32000 ft 451 kts 345°
2026-04-30 11:00 20.66778 -86.66513 32000 ft 451 kts 345°
2026-04-30 11:01 20.72778 -86.68240 32005 ft 434 kts 345°
2026-04-30 11:01 20.75647 -86.69066 32003 ft 419 kts 345°
2026-04-30 11:01 20.78410 -86.69862 32006 ft 406 kts 345°
2026-04-30 11:02 20.81053 -86.70847 31976 ft 400 kts 331°
2026-04-30 11:02 20.83296 -86.72562 31983 ft 397 kts 314°
2026-04-30 11:02 20.84984 -86.74890 32012 ft 396 kts 303°
2026-04-30 11:02 20.86547 -86.77330 31990 ft 398 kts 304°
2026-04-30 11:03 20.89675 -86.82229 32002 ft 399 kts 303°
2026-04-30 11:04 20.94312 -86.89611 32000 ft 399 kts 303°